Regional Weather Roundup
Issued by NWS Upton, NY

Home | Current Version | Previous Version | Text Only | Print | Product List | Glossary On
Versions: 1 2 3 4 5 6 7 8 9 10 11 12 13 14 15 16 17 18 19 20 21 22 23 24 25 26 27 28 29 30 31 32 33 34 35 36 37 38 39 40 41 42 43 44 45 46 47 48 49 50
000
ASUS41 KOKX 230005
RWROKX

Regional Weather Roundup
National Weather Service New York NY
800 PM EDT SUN APR 22 2018

Note: "FAIR" indicates few or no clouds below 12,000 feet with no
significant weather and/or obstructions to visibility.

NYZ071-072-176-178-NJZ106-104-230100-
New York City Metro Area

CITY           SKY/WX    TMP DP  RH WIND       PRES   REMARKS
Central Park   FAIR      55  21  26 S6        30.36R
Bronx Bot Gard   N/A     54  23  30 S8        30.35R
Bronx Lehman C   N/A     55  23  28 S9          N/A
LaGuardia Arpt FAIR      55  21  26 S12G21    30.34R
Queens College   N/A     52  28  40 S13         N/A
Kennedy Intl   FAIR      48  33  56 S18       30.36R
Breezy Point     N/A     46 N/A N/A S14         N/A
Brooklyn Coll    N/A     52  28  40 SE10        N/A
Staten Island    N/A     54  30  40 S8          N/A
Newark/Liberty FAIR      57  30  35 VRB3      30.33R
Teterboro      FAIR      56  23  27 S9        30.33R
$$

NYZ177-179-078>081-230100-
Long Island New York

CITY           SKY/WX    TMP DP  RH WIND       PRES   REMARKS
Jones Beach      N/A     48 N/A N/A SW10G18     N/A
Wantagh          N/A     48  32  53 SW8         N/A
Hempstead        N/A     50  30  46 S6        30.38R
Matinecock Pt    N/A     52 N/A N/A SW10        N/A
Farmingdale    FAIR      49  29  46 SW13      30.36R
MacArthur/ISP  FAIR      48  30  49 SW9       30.36R
Stony Brook      N/A     50  27  40 S5          N/A
Shirley        FAIR      49  30  48 SW9       30.36R
Mt Sinai Harb    N/A    N/A N/A N/A S9          N/A
Westhampton    FAIR      47  28  47 SW6       30.37R
East Hampton   FAIR      47  26  43 SW9       30.35R
Southold         N/A     48  30  49 SW9         N/A
Montauk          N/A     50  29  44 SW8       30.36R
$$

NYZ052-065-067-230100-
Hudson Valley

CITY           SKY/WX    TMP DP  RH WIND       PRES   REMARKS
White Plains   FAIR      51  23  33 S8        30.33R
Larchmont Harb   N/A     50 N/A N/A S10         N/A
Croton On Huds   N/A     54 N/A N/A E6          N/A
Somers           N/A     57  16  19 N2          N/A
Brewster         N/A     55  14  19 N3          N/A
Newburgh       CLEAR     59  19  21 VRB6      30.32R
Montgomery     FAIR      55  26  32 N5        30.31R
Otisville        N/A     57  19  23 N3          N/A
Warwick          N/A     59  19  21 W2          N/A
Suffern          N/A     55  25  30 S5          N/A
Poughkeepsie   FAIR      55  16  21 NE6       30.32R
Albany         FAIR      56   8  14 NW6       30.33R
$$

NJZ001-105-106-008-010-013-015-019>022-104-230100-
New Jersey

CITY           SKY/WX    TMP DP  RH WIND       PRES   REMARKS
Newark/Liberty FAIR      57  30  35 VRB3      30.33R
Teterboro      FAIR      56  23  27 S9        30.33R
Caldwell       FAIR      57  28  33 S7        30.33R
Somerville     FAIR      56  27  32 CALM      30.30R
Linden         FAIR      57  26  30 CALM      30.33R
Perth Amboy      N/A     55 N/A N/A SE7         N/A
Sussex         FAIR      58  20  22 CALM      30.33R
Andover          N/A     55  28  35 CALM      30.32R
Trenton        FAIR      62  20  19 SW5       30.32S
Millville      FAIR      50  31  48 S3        30.37R
Atlantic City  FAIR      51  34  52 S8        30.38R
Wrightstown    NOT AVBL
Toms River     FAIR      50  25  37 S6        30.37R
Belmar         FAIR      52  25  35 S7        30.36
$$

PAZ047>061-062-071-230100-
Eastern Pennsylvania

CITY           SKY/WX    TMP DP  RH WIND       PRES   REMARKS
Philadelphia   FAIR      62  27  26 SW8       30.34R
Allentown      FAIR      54  27  35 SW6       30.32R
Scranton       FAIR      57  18  21 N5        30.34R
$$

CTZ002-004>006-009-010-012-RIZ004-006-007-MAZ004-011-015-230100-
Southern New England

 In CT

CITY           SKY/WX    TMP DP  RH WIND       PRES   REMARKS
Bradley Intl   FAIR      55  16  21 N5        30.32R
Hartford       FAIR      58  14  17 NE5       30.33R
Danbury        FAIR      58  14  17 NE6       30.33R
Wtrbury/Oxford FAIR      51  18  27 N7        30.33R
Norwalk Harbor   N/A     48 N/A N/A SW8         N/A
Bridgeport     FAIR      50  37  61 SW7       30.34R
Meriden        FAIR      56  19  23 NW3       30.33R
New Haven      FAIR      50  35  56 SW8       30.35R
Chester        FAIR      54  25  32 S8        30.33R
Groton         FAIR      50  31  48 SW8       30.34R
Willimantic    FAIR      58  13  17 NW5       30.33R

 In RI

CITY           SKY/WX    TMP DP  RH WIND       PRES   REMARKS
Providence     FAIR      52  33  48 S8        30.32R
Block Island   FAIR      46  34  62 SW14      30.34R
Westerly       FAIR      51  34  52 SW5       30.34R

In MA

CITY           SKY/WX    TMP DP  RH WIND       PRES   REMARKS
Boston         FAIR      48  35  60 E6        30.33R
Worcester      FAIR      52  12  20 N7        30.33R
Westfield      FAIR      54  14  20 N5        30.32R
Provincetown   FAIR      46  32  58 S7        30.35R
Nantucket      FAIR      40  37  89 S6        30.36R
$$

ANZ330-335-338-340-345-350-353-355-230100-
Coastal Marine Observations


STATION/POSITION TIME  SKY/WX   TEMP    WIND        PRES    VSBY  WAVE
                                AIR SEA DIR/SP/G                  HT/PER
                 (UTC)          (F)     (DEG/KT/KT) (MB)    (MI)  (FT/S)
NY Harb Entrance 2350            47 45  190/ 12/ 14 1028.2          2/ 3
20 S Fire Island 2350            46 45  200/ 12/ 14 1028.3          1/14
23 SSW Montauk P 2350            46 44  230/ 10/ 14 1028.1          2/ 5
15 E Barnegat Li 2330               45                N/A           1/15
Hudson Canyon    2350            46 46  210/  6/  8 1028.5          1/13
Kings Point      2336            51 47  210/ 12/ 13 1028.3
Execution Rocks  NOT AVBL
Western LI Sound NOT AVBL
Central LI Sound 2330            49     210/ 14/ 16   N/A           1
Robbins Reef     2348            54     150/ 16/ 19 1027.6
$$


>>>>>>>>>>>>>>>>>>>>>>>>>>>> KEY <<<<<<<<<<<<<<<<<<<<<<<<<<<
>                                                          <
>     SKY/WX - Sky Condition/Present Weather               <
>     TMP    - Temperature in Fahrenheit                   <
>     DP     - Dew Point in Fahrenheit                     <
>     RH     - Relative Humidity in Percent                <
>     WIND   - Direction (from) and Speed in MPH           <
>     PRES   - Mean Sea Level Pressure (inches of Hg)      <
>     WCI    - Wind Chill Index                            <
>     VSB    - Visibility in Miles                         <
>     HX     - Heat Index                                  <
>     TC     - Temperature in Celsius                      <
>     VRB    - Varibale Wind Direction                     <
>                                                          <
>>>>>>>>>>>>>>>>>>>>>>>>>>>> KEY <<<<<<<<<<<<<<<<<<<<<<<<<<<



USA.gov is the U.S. government's official web portal to all federal, state and local government web resources and services.